[[{"header":{"parameterUnit":"m.s-1","parameterCategory":1,"la1":30.2991,"la2":30.254,"lo1":-89.0895,"lo2":-89.0444,"dy":0.0017,"dx":0.0017,"nx":28,"ny":28,"refTime":"2024-02-01T03:00:00:Z","depth":0,"parameterNumber":2,"parameterNumberName":"U-component_of_WINDS"},"data":[0,0,0,0,0,0,0,0,0,0,0,0,0,0,0,0,0,0,0,0,0,0,0,0,0,0,0,0,0,0,0,0,0,0,0,0,0,0,0,0,0,0,0,0,0,0,0,0,0,0,0,0,0,0,0,0,0,0,-1.322,-1.322,0,-1.317,-1.317,-1.3169,-1.3059,-1.3056,-1.3054,-1.3052,-1.3002,-1.3003,-1.3004,0,0,0,0,0,0,0,0,0,0,0,0,0,-1.3224,-1.3225,-1.322,-1.322,-1.3219,-1.317,-1.317,-1.3169,-1.3059,-1.3056,-1.3053,-1.3051,-1.3002,-1.3003,-1.3004,0,0,0,0,0,0,0,0,0,0,0,0,0,-1.3203,-1.3225,-1.3221,-1.3158,-1.3152,-1.317,-1.317,-1.3169,-1.3059,-1.3056,-1.3053,-1.305,-1.3002,-1.3003,-1.3004,-1.3079,0,0,-1.3007,-1.3008,0,0,0,0,0,0,0,0,-1.3205,-1.3203,-1.3168,-1.3163,-1.3156,-1.3117,-1.3152,-1.3139,-1.306,-1.3095,-1.3052,-1.3048,-1.3043,-1.3041,-1.3039,-1.3076,-1.3074,-1.3008,-1.3008,-1.3009,-1.3009,0,0,0,0,0,0,0,-1.3206,-1.3205,-1.32,-1.3168,-1.316,-1.3134,-1.3127,-1.3149,-1.3089,-1.3092,-1.3083,-1.3079,-1.3039,-1.3038,-1.3037,-1.3074,-1.3007,-1.3009,-1.3009,-1.301,-1.3171,-1.3175,0,0,0,0,0,0,-1.3216,-1.3207,-1.3202,-1.3199,-1.3172,-1.3137,-1.3129,-1.3133,-1.3088,-1.3078,-1.3082,-1.3074,-1.3038,-1.3036,-1.3035,-1.3119,-1.3009,-1.301,-1.301,-1.3168,-1.3172,-1.3176,0,0,0,0,0,0,-1.3217,-1.3217,-1.3204,-1.3201,-1.3197,-1.314,-1.3145,-1.3134,-1.3132,-1.3081,-1.307,-1.3091,-1.3035,-1.3033,-1.3069,-1.3116,-1.301,-1.3011,-1.3164,-1.3169,-1.3174,-1.329,0,0,0,0,0,0,-1.3218,-1.3218,-1.3245,-1.3202,-1.3198,-1.3238,-1.3148,-1.3135,-1.3134,-1.3124,-1.3087,-1.3077,-1.3032,-1.3068,-1.307,-1.3116,-1.3012,-1.3159,-1.3166,-1.3173,-1.3281,-1.3298,-1.3313,0,0,0,0,0,-1.3218,-1.3279,-1.3247,-1.3247,-1.323,-1.3241,-1.3239,-1.3185,-1.3139,-1.3166,-1.3133,-1.3079,-1.3111,-1.3072,-1.3074,-1.3121,-1.3156,-1.3164,-1.3172,-1.3274,-1.3295,-1.3312,0,0,0,0,0,0,-1.3329,-1.3273,-1.3236,-1.3285,-1.3269,-1.3223,-1.3255,-1.3208,-1.3205,-1.3195,-1.3129,-1.3122,-1.3167,-1.3148,-1.3105,-1.3192,-1.3125,-1.3134,-1.3202,-1.3221,-1.3237,-1.324,-1.3013,0,0,0,0,0,-1.3359,-1.3372,-1.3323,-1.3371,-1.3365,-1.3312,-1.3315,-1.3275,-1.3256,-1.3248,-1.3218,-1.3202,-1.3209,-1.3214,-1.3217,-1.3279,-1.3269,-1.3312,-1.3328,-1.3341,-1.3349,-1.3381,-1.3399,-1.3203,-1.3203,-1.3203,0,0,-1.3422,-1.3393,-1.3405,-1.3393,-1.3375,-1.3391,-1.3307,-1.3327,-1.3338,-1.3251,-1.3283,-1.3261,-1.3239,-1.3288,-1.3308,-1.3273,-1.3402,-1.3352,-1.3363,-1.3363,-1.3391,-1.341,-1.3426,-1.3208,-1.3207,-1.3206,0,0,-1.3543,-1.3523,-1.356,-1.3545,-1.3521,-1.3485,-1.3495,-1.3456,-1.3438,-1.3469,-1.3405,-1.3418,-1.3431,-1.3418,-1.3413,-1.3533,-1.3483,-1.3537,-1.3618,-1.365,-1.3665,-1.3679,-1.3721,-1.3737,-1.3545,-1.3545,-1.3545,0,-1.3623,-1.3644,-1.3586,-1.361,-1.3607,-1.3531,-1.3569,-1.3558,-1.3536,-1.3536,-1.3498,-1.3513,-1.3493,-1.3538,-1.3568,-1.3567,-1.3576,-1.3539,-1.3668,-1.368,-1.3692,-1.3732,-1.3748,-1.3552,-1.3551,-1.355,-1.355,0,-1.3744,-1.376,-1.3794,-1.3774,-1.3775,-1.3807,-1.3755,-1.3764,-1.3725,-1.3695,-1.3728,-1.3702,-1.3698,-1.3707,-1.3669,-1.3747,-1.3726,-1.3679,-1.361,-1.3718,-1.3754,-1.3769,-1.3561,-1.3559,-1.3557,-1.3555,0,0,-1.393,-1.3881,-1.3894,-1.3884,-1.3853,-1.3864,-1.3894,-1.389,-1.3899,-1.3888,-1.3911,-1.3925,-1.3881,-1.3876,-1.3837,-1.3865,-1.3962,-1.3814,-1.3812,-1.3841,-1.4047,-1.4081,-1.41,-1.393,-1.3932,-1.3934,-1.4048,0,-1.4043,-1.4088,-1.4039,-1.4095,-1.4109,-1.4038,-1.4064,-1.4048,-1.4022,-1.403,-1.4001,-1.4012,-1.3954,-1.395,-1.3975,-1.3945,-1.4002,-1.3936,-1.395,-1.3951,-1.3956,-1.4118,-1.4154,-1.4263,-1.4062,-1.4064,-1.4066,0,-1.4179,-1.4174,-1.4232,-1.4198,-1.4202,-1.4226,-1.422,-1.423,-1.4211,-1.419,-1.4186,-1.4139,-1.4166,-1.4102,-1.4139,-1.4095,-1.4099,-1.4086,-1.4088,-1.4086,-1.4014,-1.4119,-1.4296,-1.4312,-1.4088,-1.4086,-1.4085,0,-1.4308,-1.4317,-1.4352,-1.4347,-1.4308,-1.4327,-1.4312,-1.429,-1.4292,-1.4288,-1.4288,-1.4288,-1.4287,-1.4288,-1.4243,-1.42,-1.4287,-1.4218,-1.4269,-1.4271,-1.4288,-1.4288,-1.4467,-1.4295,-1.4294,-1.4294,-1.4294,0,-1.4438,-1.4476,-1.4409,-1.4431,-1.4472,-1.4417,-1.4459,-1.4437,-1.4419,-1.4436,-1.4376,-1.4393,-1.4333,-1.4345,-1.431,-1.4347,-1.4347,-1.4331,-1.4321,-1.4335,-1.4337,-1.4335,-1.4325,-1.4298,-1.4297,-1.4296,-1.4296,0,-1.4587,-1.4545,-1.4579,-1.4541,-1.4532,-1.4564,-1.4532,-1.4551,-1.4522,-1.4544,-1.4546,-1.45,-1.4511,-1.4467,-1.447,-1.4447,-1.4501,-1.4479,-1.4507,-1.4499,-1.4553,-1.4548,-1.4736,-1.4758,-1.4573,-1.4575,-1.4577,0,-1.4672,-1.4699,-1.4665,-1.4671,-1.466,-1.4672,-1.4674,-1.4621,-1.4626,-1.4609,-1.463,-1.4637,-1.4638,-1.4659,-1.4626,-1.4629,-1.4606,-1.4672,-1.4606,-1.462,-1.4606,-1.4604,-1.4606,-1.4685,-1.4687,-1.4689,-1.4691,0,-1.4825,-1.4804,-1.4808,-1.4806,-1.481,-1.4806,-1.4798,-1.4808,-1.4752,-1.476,-1.4771,-1.4772,-1.4777,-1.4783,-1.478,-1.4765,-1.4719,-1.4712,-1.4724,-1.4738,-1.4752,-1.4744,-1.4542,-1.4707,-1.4706,-1.4704,-1.4703,-1.4703,-1.4943,-1.4965,-1.4944,-1.4952,-1.4941,-1.4936,-1.4952,-1.4925,-1.4933,-1.4931,-1.4901,-1.4918,-1.4901,-1.4891,-1.4882,-1.4895,-1.4864,-1.4882,-1.4886,-1.4891,-1.4899,-1.4752,-1.4895,-1.4894,-1.4894,-1.4893,-1.4893,0,-1.5093,-1.5077,-1.5085,-1.5076,-1.5083,-1.504,-1.5029,-1.5038,-1.5053,-1.5041,-1.5045,-1.5058,-1.5065,-1.5034,-1.5037,-1.5054,-1.5033,-1.5056,-1.5053,-1.5051,-1.4927,-1.4916,-1.5073,-1.5073,-1.5073,-1.5073,-1.5073,-1.5073,-1.5171,-1.5205,-1.5182,-1.5211,-1.5194,-1.521,-1.5208,-1.5203,-1.5193,-1.521,-1.5216,-1.5196,-1.5177,-1.5179,-1.5184,-1.5175,-1.5178,-1.5209,-1.5193,-1.5077,-1.5059,-1.5043,-1.5032,-1.5211,-1.5211,-1.5315,-1.5316,-1.5317]},{"header":{"parameterUnit":"m.s-1","parameterCategory":1,"la1":30.2991,"la2":30.254,"lo1":-89.0895,"lo2":-89.0444,"dy":0.0017,"dx":0.0017,"nx":28,"ny":28,"refTime":"2024-02-01T03:00:00:Z","depth":0,"parameterNumber":3,"parameterNumberName":"V-component_of_WINDS"},"data":[0,0,0,0,0,0,0,0,0,0,0,0,0,0,0,0,0,0,0,0,0,0,0,0,0,0,0,0,0,0,0,0,0,0,0,0,0,0,0,0,0,0,0,0,0,0,0,0,0,0,0,0,0,0,0,0,0,0,0.886,0.886,0,0.8853,0.8853,0.8853,0.8929,0.8931,0.8933,0.8935,0.8924,0.8921,0.8919,0,0,0,0,0,0,0,0,0,0,0,0,0,0.8937,0.8935,0.886,0.886,0.886,0.8853,0.8853,0.8853,0.8928,0.8931,0.8933,0.8936,0.8924,0.8922,0.8919,0,0,0,0,0,0,0,0,0,0,0,0,0,0.8914,0.8934,0.886,0.8897,0.89,0.8853,0.8853,0.8853,0.8928,0.8931,0.8934,0.8937,0.8925,0.8922,0.8919,0.8835,0,0,0.8908,0.8907,0,0,0,0,0,0,0,0,0.8915,0.8911,0.8891,0.8894,0.8898,0.8895,0.8876,0.8847,0.8927,0.8917,0.8935,0.8939,0.8911,0.8909,0.8901,0.8834,0.8834,0.8908,0.8906,0.8905,0.8904,0,0,0,0,0,0,0,0.8916,0.8911,0.8857,0.8891,0.8895,0.8913,0.8913,0.8871,0.8896,0.8918,0.8924,0.8922,0.8914,0.8904,0.8901,0.8834,0.8908,0.8905,0.8903,0.8902,0.8699,0.8696,0,0,0,0,0,0,0.8913,0.8912,0.8857,0.8857,0.8914,0.8909,0.8909,0.8893,0.8897,0.8901,0.8919,0.8926,0.8908,0.8905,0.8901,0.8804,0.8905,0.8901,0.8899,0.8702,0.8698,0.8695,0,0,0,0,0,0,0.8915,0.8908,0.8858,0.8886,0.8881,0.8904,0.8885,0.8891,0.8881,0.8898,0.8903,0.8905,0.8911,0.8906,0.8851,0.8804,0.89,0.8897,0.8706,0.8701,0.8697,0.8607,0,0,0,0,0,0,0.8917,0.8908,0.8876,0.8885,0.8879,0.8808,0.8882,0.8888,0.8876,0.8884,0.8886,0.8889,0.8913,0.8856,0.8848,0.8801,0.8894,0.8711,0.8704,0.8698,0.8615,0.86,0.8587,0,0,0,0,0,0.8919,0.8851,0.8874,0.8867,0.8841,0.8805,0.8802,0.8832,0.8872,0.884,0.8851,0.8889,0.8811,0.885,0.8841,0.8793,0.8714,0.8706,0.8699,0.8621,0.8603,0.8588,0,0,0,0,0,0,0.8834,0.8852,0.8879,0.8811,0.8806,0.8818,0.8779,0.8812,0.8794,0.8802,0.8839,0.8839,0.8778,0.878,0.8823,0.8713,0.8769,0.876,0.8713,0.8696,0.8683,0.8683,0.8891,0,0,0,0,0,0.8808,0.8778,0.8796,0.8734,0.8731,0.8755,0.8741,0.8764,0.876,0.8758,0.8765,0.8759,0.8733,0.8715,0.8692,0.8616,0.8618,0.8579,0.8565,0.8554,0.8545,0.8505,0.8488,0.867,0.867,0.867,0,0,0.8752,0.8759,0.8737,0.8717,0.8716,0.8684,0.8753,0.8716,0.8692,0.8752,0.8701,0.8706,0.8702,0.8636,0.8608,0.8636,0.8495,0.8545,0.8535,0.8532,0.8496,0.8478,0.8463,0.8665,0.8666,0.8667,0,0,0.8635,0.8637,0.8586,0.8585,0.8583,0.86,0.8588,0.8596,0.8602,0.8552,0.8597,0.8569,0.8524,0.8519,0.851,0.8394,0.8428,0.8385,0.8313,0.8274,0.826,0.8248,0.8206,0.819,0.8376,0.8376,0.8376,0,0.8565,0.852,0.8556,0.8516,0.8506,0.8561,0.851,0.8506,0.8497,0.8488,0.8521,0.8467,0.8467,0.8402,0.8373,0.8365,0.8352,0.8384,0.826,0.8247,0.8236,0.8196,0.8181,0.8371,0.8372,0.8372,0.8373,0,0.8435,0.8403,0.8362,0.8353,0.8339,0.8294,0.8322,0.8303,0.8329,0.8342,0.8291,0.8294,0.8274,0.826,0.8284,0.8198,0.8216,0.8254,0.8311,0.8213,0.8176,0.8161,0.8364,0.8365,0.8367,0.8368,0,0,0.8261,0.8275,0.8259,0.8256,0.826,0.8235,0.8193,0.8174,0.8157,0.8149,0.8114,0.8076,0.8112,0.8102,0.8126,0.8092,0.7999,0.8134,0.8135,0.8108,0.7905,0.7875,0.7857,0.8023,0.802,0.8018,0.7905,0,0.8146,0.8075,0.8108,0.8033,0.8004,0.8057,0.802,0.8018,0.803,0.8007,0.802,0.7992,0.8042,0.8036,0.8005,0.8017,0.7959,0.8026,0.7989,0.7987,0.7987,0.7838,0.7806,0.7699,0.7891,0.7888,0.7887,0,0.8002,0.799,0.7913,0.7924,0.7913,0.7879,0.7865,0.7843,0.7841,0.7853,0.7843,0.7876,0.7834,0.7893,0.7836,0.7881,0.7869,0.7872,0.7869,0.7865,0.793,0.7829,0.7666,0.7649,0.7864,0.7866,0.7868,0,0.7882,0.7847,0.7797,0.7793,0.7804,0.7779,0.7782,0.7784,0.7771,0.7759,0.7752,0.7734,0.7724,0.771,0.7736,0.7777,0.7676,0.7737,0.7683,0.7682,0.7658,0.7659,0.7489,0.7652,0.7652,0.7652,0.7653,0,0.775,0.77,0.7743,0.7712,0.7658,0.7696,0.7642,0.7651,0.7653,0.7624,0.7669,0.764,0.7678,0.7653,0.7674,0.7624,0.7619,0.7627,0.7632,0.7622,0.762,0.7612,0.762,0.7648,0.7649,0.765,0.7651,0,0.7605,0.7633,0.7581,0.7597,0.76,0.7559,0.7572,0.7544,0.756,0.7523,0.7517,0.7542,0.7515,0.7541,0.7516,0.753,0.7462,0.748,0.7463,0.7467,0.7412,0.7416,0.723,0.7207,0.7385,0.7384,0.7382,0,0.7518,0.7482,0.7495,0.7479,0.748,0.7455,0.7443,0.7479,0.7464,0.7462,0.7433,0.7411,0.7395,0.735,0.7365,0.7346,0.7363,0.7299,0.736,0.735,0.736,0.7362,0.7358,0.7285,0.7283,0.7282,0.728,0,0.7361,0.7377,0.7358,0.7345,0.733,0.732,0.7314,0.7299,0.7337,0.7318,0.7293,0.728,0.7256,0.7232,0.7219,0.7221,0.7256,0.7261,0.7248,0.7236,0.7227,0.723,0.7428,0.7265,0.7266,0.7268,0.7268,0.7269,0.7242,0.7213,0.7217,0.7195,0.7196,0.7189,0.7164,0.7178,0.7158,0.7142,0.7165,0.7133,0.7134,0.7119,0.7118,0.7093,0.712,0.71,0.7095,0.7089,0.7081,0.7233,0.7091,0.7091,0.7091,0.7092,0.7092,0,0.7086,0.7093,0.7073,0.7064,0.7047,0.7085,0.708,0.7063,0.7035,0.7034,0.7018,0.6989,0.6967,0.6982,0.6964,0.6941,0.6957,0.6935,0.6936,0.6936,0.7058,0.7071,0.6923,0.6923,0.6923,0.6923,0.6923,0.6923,0.7003,0.6955,0.6972,0.6924,0.6931,0.6902,0.6896,0.6891,0.689,0.6856,0.6839,0.685,0.6855,0.6838,0.682,0.6825,0.6815,0.6787,0.6798,0.6911,0.6927,0.6943,0.6956,0.6785,0.6785,0.6678,0.6677,0.6676]}]]